When you browse on this site, cookies collect data to enhance your experience and personalize the content and advertising you see.
Visit our Privacy Policy to learn more. By continuing to use the site, you agree to this use of cookies and data.
  • In Czech Republic
  • List of Countries
  • For 7 days
  • Water Temperature
  • Satellite Maps
  • Weather Map
  • Weather Widgets
  • user-avatar
    Login

    Hourly Weather Fuzhou

    Today, 26 June, Wednesday

    Time Temperature Precipitation Wind Pressure Humidity
    00:00 +23°C° 0 mm 0 mps 754 mmHg 98%
    01:00 +23°C° 0 mm 0 mps 753 mmHg 98%
    02:00 +22°C° 0 mm 0 mps 753 mmHg 98%
    03:00 +22°C° 0 mm 0 mps 753 mmHg 98%
    04:00 +22°C° 0 mm 0 mps 753 mmHg 97%
    05:00 +22°C° 0 mm 0 mps 753 mmHg 97%
    06:00 +23°C° 0 mm 0 mps 753 mmHg 94%
    07:00 +25°C° 0 mm 0 mps 753 mmHg 91%
    08:00 +26°C° 0 mm 0 mps 753 mmHg 88%
    09:00 +28°C° 0.2 mm 0 mps 753 mmHg 82%
    10:00 +30°C° 0.2 mm 0 mps 752 mmHg 75%
    11:00 +33°C° 0.2 mm 1 mps 752 mmHg 69%
    12:00 +33°C° 1.5 mm 1 mps 752 mmHg 72%
    13:00 +33°C° 1.5 mm 1 mps 751 mmHg 75%
    14:00 +32°C° 1.5 mm 2 mps 750 mmHg 78%
    15:00 +32°C° 1.8 mm 1 mps 750 mmHg 82%
    16:00 +31°C° 1.8 mm 1 mps 750 mmHg 85%
    17:00 +30°C° 1.8 mm 1 mps 749 mmHg 88%
    18:00 +29°C° 0.8 mm 1 mps 750 mmHg 91%
    19:00 +26°C° 0.8 mm 0 mps 750 mmHg 93%
    20:00 +25°C° 0.8 mm 0 mps 750 mmHg 96%
    21:00 +25°C° 0 mm 0 mps 751 mmHg 96%
    22:00 +24°C° 0 mm 0 mps 751 mmHg 96%
    23:00 +24°C° 0 mm 0 mps 751 mmHg 97%

    Tomorrow, 27 June, Thursday

    Time Temperature Precipitation Wind Pressure Humidity
    00:00 +24°C° 0 mm 0 mps 751 mmHg 97%
    01:00 +24°C° 0 mm 0 mps 750 mmHg 97%
    02:00 +24°C° 0 mm 0 mps 750 mmHg 97%
    03:00 +24°C° 0 mm 0 mps 750 mmHg 97%
    04:00 +24°C° 0 mm 0 mps 750 mmHg 97%
    05:00 +24°C° 0 mm 0 mps 750 mmHg 97%
    06:00 +25°C° 0 mm 0 mps 750 mmHg 94%
    07:00 +26°C° 0 mm 0 mps 750 mmHg 91%
    08:00 +28°C° 0 mm 0 mps 750 mmHg 88%
    09:00 +29°C° 0.1 mm 0 mps 750 mmHg 81%
    10:00 +33°C° 0.1 mm 1 mps 750 mmHg 74%
    11:00 +35°C° 0.1 mm 1 mps 750 mmHg 66%
    12:00 +35°C° 0.4 mm 1 mps 750 mmHg 66%
    13:00 +35°C° 0.4 mm 1 mps 749 mmHg 66%
    14:00 +36°C° 0.4 mm 2 mps 749 mmHg 66%
    15:00 +36°C° 0.9 mm 2 mps 749 mmHg 71%
    16:00 +35°C° 0.9 mm 2 mps 748 mmHg 76%
    17:00 +34°C° 0.9 mm 2 mps 748 mmHg 81%
    18:00 +31°C° 1.5 mm 1 mps 749 mmHg 85%
    19:00 +30°C° 1.5 mm 1 mps 749 mmHg 89%
    20:00 +29°C° 1.5 mm 1 mps 750 mmHg 93%
    21:00 +28°C° 0.2 mm 1 mps 750 mmHg 94%
    22:00 +28°C° 0.2 mm 1 mps 750 mmHg 95%
    23:00 +28°C° 0.2 mm 1 mps 751 mmHg 96%

    Day after tomorrow, 28 June, Friday

    Time Temperature Precipitation Wind Pressure Humidity
    00:00 +25°C° 0 mm 0 mps 751 mmHg 96%
    01:00 +25°C° 0 mm 0 mps 750 mmHg 96%
    02:00 +25°C° 0 mm 0 mps 750 mmHg 97%
    03:00 +25°C° 0 mm 0 mps 750 mmHg 97%
    04:00 +25°C° 0 mm 0 mps 750 mmHg 97%
    05:00 +25°C° 0 mm 0 mps 750 mmHg 97%
    06:00 +26°C° 0 mm 0 mps 750 mmHg 93%
    07:00 +29°C° 0 mm 1 mps 751 mmHg 89%
    08:00 +31°C° 0 mm 1 mps 751 mmHg 86%
    09:00 +32°C° 0 mm 1 mps 751 mmHg 78%
    10:00 +34°C° 0 mm 1 mps 751 mmHg 69%
    11:00 +37°C° 0 mm 2 mps 751 mmHg 61%
    12:00 +37°C° 0 mm 2 mps 750 mmHg 60%
    13:00 +38°C° 0 mm 3 mps 750 mmHg 59%
    14:00 +38°C° 0 mm 3 mps 749 mmHg 58%
    15:00 +37°C° 0 mm 3 mps 749 mmHg 62%
    16:00 +36°C° 0 mm 3 mps 749 mmHg 66%
    17:00 +36°C° 0 mm 3 mps 749 mmHg 70%
    18:00 +34°C° 0 mm 2 mps 749 mmHg 77%
    19:00 +31°C° 0 mm 2 mps 749 mmHg 84%
    20:00 +29°C° 0 mm 1 mps 750 mmHg 90%
    21:00 +29°C° 0.1 mm 1 mps 750 mmHg 91%
    22:00 +29°C° 0.1 mm 1 mps 750 mmHg 92%
    23:00 +28°C° 0.1 mm 1 mps 751 mmHg 93%

    29 June, Saturday

    Time Temperature Precipitation Wind Pressure Humidity
    00:00 +28°C° 0 mm 1 mps 750 mmHg 94%
    01:00 +28°C° 0 mm 1 mps 750 mmHg 95%
    02:00 +28°C° 0 mm 1 mps 750 mmHg 95%
    03:00 +27°C° 0 mm 1 mps 750 mmHg 95%
    04:00 +27°C° 0 mm 1 mps 750 mmHg 95%
    05:00 +27°C° 0 mm 1 mps 750 mmHg 95%
    06:00 +29°C° 0 mm 1 mps 750 mmHg 90%
    07:00 +30°C° 0 mm 1 mps 750 mmHg 84%
    08:00 +32°C° 0 mm 1 mps 750 mmHg 78%
    09:00 +34°C° 0 mm 2 mps 750 mmHg 70%
    10:00 +36°C° 0 mm 2 mps 750 mmHg 62%
    11:00 +38°C° 0 mm 2 mps 750 mmHg 55%
    12:00 +38°C° 0 mm 2 mps 750 mmHg 53%
    13:00 +39°C° 0 mm 3 mps 749 mmHg 51%
    14:00 +40°C° 0 mm 3 mps 749 mmHg 50%
    15:00 +39°C° 0 mm 3 mps 749 mmHg 56%
    16:00 +37°C° 0 mm 2 mps 748 mmHg 62%
    17:00 +36°C° 0 mm 2 mps 748 mmHg 68%
    18:00 +34°C° 0 mm 2 mps 749 mmHg 75%
    19:00 +32°C° 0 mm 2 mps 749 mmHg 83%
    20:00 +30°C° 0 mm 1 mps 750 mmHg 90%
    21:00 +29°C° 0 mm 1 mps 750 mmHg 91%
    22:00 +29°C° 0 mm 1 mps 750 mmHg 92%
    23:00 +29°C° 0 mm 1 mps 751 mmHg 94%

    30 June, Sunday

    Time Temperature Precipitation Wind Pressure Humidity
    00:00 +29°C° 0 mm 1 mps 750 mmHg 94%
    01:00 +28°C° 0 mm 1 mps 750 mmHg 95%
    02:00 +28°C° 0 mm 1 mps 750 mmHg 95%
    03:00 +28°C° 0 mm 1 mps 750 mmHg 96%
    04:00 +28°C° 0 mm 1 mps 750 mmHg 96%
    05:00 +28°C° 0 mm 1 mps 750 mmHg 96%
    06:00 +29°C° 0 mm 1 mps 750 mmHg 90%
    07:00 +31°C° 0 mm 1 mps 750 mmHg 83%
    08:00 +32°C° 0 mm 1 mps 750 mmHg 77%
    09:00 +34°C° 0 mm 1 mps 750 mmHg 70%
    10:00 +36°C° 0 mm 1 mps 750 mmHg 64%
    11:00 +39°C° 0 mm 1 mps 750 mmHg 57%
    12:00 +39°C° 0 mm 2 mps 749 mmHg 57%
    13:00 +39°C° 0 mm 2 mps 749 mmHg 58%
    14:00 +39°C° 0 mm 2 mps 748 mmHg 58%
    15:00 +38°C° 0.6 mm 2 mps 748 mmHg 65%
    16:00 +37°C° 0.6 mm 2 mps 748 mmHg 71%
    17:00 +35°C° 0.6 mm 1 mps 748 mmHg 77%
    18:00 +33°C° 1.2 mm 1 mps 749 mmHg 82%
    19:00 +31°C° 1.2 mm 1 mps 749 mmHg 87%
    20:00 +29°C° 1.2 mm 1 mps 750 mmHg 92%
    21:00 +29°C° 1.1 mm 1 mps 750 mmHg 93%
    22:00 +27°C° 1.1 mm 0 mps 751 mmHg 94%
    23:00 +26°C° 1.1 mm 0 mps 751 mmHg 94%

    1 July, Monday

    Time Temperature Precipitation Wind Pressure Humidity
    00:00 +26°C° 0 mm 0 mps 750 mmHg 94%
    01:00 +26°C° 0 mm 0 mps 750 mmHg 95%
    02:00 +26°C° 0 mm 0 mps 750 mmHg 95%
    03:00 +26°C° 0 mm 0 mps 750 mmHg 95%
    04:00 +25°C° 0 mm 0 mps 750 mmHg 95%
    05:00 +25°C° 0 mm 0 mps 750 mmHg 96%
    06:00 +27°C° 0 mm 0 mps 750 mmHg 92%
    07:00 +28°C° 0 mm 0 mps 750 mmHg 88%
    08:00 +29°C° 0 mm 0 mps 750 mmHg 85%
    09:00 +31°C° 0 mm 0 mps 750 mmHg 77%
    10:00 +35°C° 0 mm 1 mps 750 mmHg 69%
    11:00 +37°C° 0 mm 1 mps 750 mmHg 60%
    12:00 +37°C° 0.2 mm 2 mps 750 mmHg 62%
    13:00 +37°C° 0.2 mm 2 mps 750 mmHg 64%
    14:00 +37°C° 0.2 mm 2 mps 749 mmHg 66%
    15:00 +35°C° 1.2 mm 2 mps 749 mmHg 73%
    16:00 +34°C° 1.2 mm 2 mps 749 mmHg 80%
    17:00 +32°C° 1.2 mm 2 mps 750 mmHg 86%
    18:00 +30°C° 0.4 mm 2 mps 750 mmHg 90%
    19:00 +29°C° 0.4 mm 2 mps 751 mmHg 93%
    20:00 +28°C° 0.4 mm 1 mps 751 mmHg 96%
    21:00 +28°C° 0 mm 1 mps 751 mmHg 94%
    22:00 +28°C° 0 mm 1 mps 752 mmHg 93%
    23:00 +27°C° 0 mm 1 mps 752 mmHg 92%
    Show more